GW3347 Weather Reports


time (UTC)temp
C
wind
direction
speed
KPH
gust
KPH
rain 1hr
cm
rain 24hr
cm
rain mn
cm
humidity
%
barometer
mb
20260504081531 10 0 0.0 3.2 0.00 0.00 0.00 66 1014.7
20260504044529 6 0 0.0 0.0 0.00 0.00 0.00 79 1015.1
20260504043028 6 0 0.0 0.0 0.00 0.00 0.00 77 1015.2
20260504041534 6 0 0.0 0.0 0.00 0.00 0.00 78 1015.3
20260504040033 6 0 0.0 0.0 0.00 0.00 0.00 77 1015.2
20260504034542 6 0 0.0 0.0 0.00 0.00 0.00 77 1015.1
20260504033033 6 0 0.0 0.0 0.00 0.00 0.00 78 1015.1
20260504031530 6 0 0.0 0.0 0.00 0.00 0.00 76 1015.0
20260504030038 6 0 0.0 1.6 0.00 0.00 0.00 74 1014.8
20260504024530 6 0 0.0 0.0 0.00 0.00 0.00 75 1014.6
20260504023030 6 0 0.0 0.0 0.00 0.00 0.00 73 1014.6
20260504021532 6 0 0.0 0.0 0.00 0.00 0.00 73 1014.7
20260504020038 7 0 0.0 0.0 0.00 0.00 0.00 71 1014.7
20260504014532 7 0 0.0 0.0 0.00 0.00 0.00 67 1014.5
20260504013029 7 0 0.0 0.0 0.00 0.00 0.00 66 1014.5
20260504011531 8 0 0.0 0.0 0.00 0.00 0.00 62 1014.4
20260504010030 9 0 0.0 0.0 0.00 0.00 0.00 62 1014.3
20260504004531 10 0 0.0 0.0 0.00 0.00 0.00 55 1014.3
20260504003030 11 0 0.0 0.0 0.00 0.00 0.00 50 1014.0
20260504001533 12 0 0.0 0.0 0.00 0.00 0.00 46 1014.1
20260504000033 13 0 0.0 0.0 0.00 0.00 0.00 41 1014.0
20260503234534 15 0 0.0 0.0 0.00 0.00 0.00 36 1013.9
20260503233034 15 0 0.0 1.6 0.00 0.00 0.00 33 1013.7
20260503231544 16 0 0.0 0.0 0.00 0.00 0.00 31 1013.6
20260503230030 16 0 0.0 1.6 0.00 0.00 0.00 31 1013.7
20260503224531 16 0 0.0 1.6 0.00 0.00 0.00 31 1013.7
20260503223030 16 0 1.6 19.3 0.00 0.00 0.00 31 1013.7
20260503221535 16 0 4.8 22.5 0.00 0.00 0.00 30 1013.7
20260503220037 16 298 4.8 22.5 0.00 0.00 0.00 31 1013.8
20260503214531 16 0 1.6 17.7 0.00 0.00 0.00 31 1013.8
20260503213048 16 0 3.2 25.7 0.00 0.00 0.00 33 1013.7
20260503211533 16 0 0.0 19.3 0.00 0.00 0.00 33 1013.7
20260503210035 16 323 11.3 27.4 0.00 0.00 0.00 32 1013.7
20260503204550 16 302 3.2 24.1 0.00 0.00 0.00 34 1013.7
20260503203035 16 0 4.8 22.5 0.00 0.00 0.00 36 1014.0
20260503201530 15 0 1.6 20.9 0.00 0.00 0.00 36 1014.1
20260503200030 15 298 6.4 27.4 0.00 0.00 0.00 34 1014.3
20260503194530 15 0 4.8 29.0 0.00 0.00 0.00 36 1014.5
20260503193030 15 0 11.3 30.6 0.00 0.00 0.00 36 1014.4
20260503191537 15 0 0.0 17.7 0.00 0.00 0.00 37 1014.6
20260503190033 15 326 9.7 32.2 0.00 0.00 0.00 38 1014.9
20260503184530 14 0 12.9 29.0 0.00 0.00 0.00 37 1015.0
20260503183040 14 329 6.4 25.7 0.00 0.00 0.00 39 1015.2
20260503181532 14 320 12.9 25.7 0.00 0.00 0.00 37 1015.4
20260503180033 13 0 0.0 22.5 0.00 0.00 0.00 39 1015.2
20260503174541 13 0 4.8 32.2 0.00 0.00 0.00 39 1015.3
20260503173030 13 0 3.2 32.2 0.00 0.00 0.00 39 1015.4
20260503171533 13 0 3.2 27.4 0.00 0.00 0.00 39 1015.4